Regional Weather Roundup
Issued by NWS

Home | Current Version | Previous Version | Graphics & Text | Print | Product List | Glossary On
Versions: 1 2 3 4 5 6 7 8 9 10 11 12 13 14 15 16 17 18 19 20 21 22 23 24 25 26 27 28 29 30 31 32 33 34 35 36 37 38 39 40 41 42 43 44 45 46 47 48 49 50
000
ASUS43 KFSD 241402
RWRSD

WEATHER ROUNDUP FOR SOUTH DAKOTA
NATIONAL WEATHER SERVICE SIOUX FALLS SD
900 AM CDT THU MAY 24 2018

NOTE: "FAIR" INDICATES FEW OR NO CLOUDS BELOW 12,000 FEET WITH NO
SIGNIFICANT WEATHER AND/OR OBSTRUCTIONS TO VISIBILITY.


SDZ001>005-009-010-012>017-241500-
NORTHWEST AND NORTH CENTRAL SOUTH DAKOTA

CITY           SKY/WX    TMP DP  RH WIND       PRES   REMARKS
BUFFALO          N/A     64  53  67 W12       29.82S
FAITH            N/A     63  56  78 S16       29.86F
MOBRIDGE       MOSUNNY   69  58  67 SW9       29.84S
$$

SDZ012>016-024>037-041>051-057-063-072>074-241500-
SOUTHWEST AND SOUTH CENTRAL SOUTH DAKOTA

CITY           SKY/WX    TMP DP  RH WIND       PRES   REMARKS
RAPID CTY ARPT SUNNY     64  52  64 S13       29.92R
PIERRE         MOSUNNY   66  57  72 SW9       29.88R
CUSTER         SUNNY     58  43  57 W12G18    30.04S
ELLSWORTH AFB  SUNNY     66  53  61 W6        29.91S
PHILIP         SUNNY     64  57  78 SW12      29.90F
PINE RIDGE     SUNNY     65  57  75 S17G23    29.98R
SPEARFISH      FAIR      66  46  48 SW13      29.95R
WINNER         FAIR      70  58  65 S16G29    29.90F
$$

SDZ004>011-016>023-039-040-241500-
NORTHEAST SOUTH DAKOTA

CITY           SKY/WX    TMP DP  RH WIND       PRES   REMARKS
ABERDEEN       PTSUNNY   73  60  63 S16       29.89R
WATERTOWN      CLOUDY    73  62  68 S12       29.91S
BROOKINGS      CLOUDY    70  65  84 S18       29.93S
SISSETON         N/A     75  63  66 S13       29.88R
$$

SDZ017-020-022-023-036>040-048>070-241500-
SOUTHEAST SOUTH DAKOTA

CITY           SKY/WX    TMP DP  RH WIND       PRES   REMARKS
SIOUX FALLS    CLOUDY    72  66  81 S17G23    29.96F
HURON          PTSUNNY   71  58  63 S13       29.91S
CHAMBERLAIN    PTSUNNY   72  63  72 SW10      29.89S
MITCHELL       PTSUNNY   70  60  70 S18G29    29.91S
YANKTON        MOSUNNY   71  64  78 SE8       29.98F
$$

ABBREVIATIONS USED IN REMARKS
   TC - TEMPERATURE IN CELSIUS
  WCI - WIND CHILL INDEX
   HX - HEAT INDEX
  VSB - VISIBILITY





USA.gov is the U.S. government's official web portal to all federal, state and local government web resources and services.